DRAGON CRS-19 DEB (44823 NORAD) Tracking and Keplerian Element Data

This shows tracking and keplerian element data for the satellite.

Feedback or suggestion? Click here.




ElementValue
Catalog44823
NameDRAGON CRS-19 DEB
Epoch Orbit115
Epoch Day346.87440336
Epoch Year2019
RAAN192.8972
Inclination51.6433
Eccentricity0.0022509
Argument of Perigee72.435
Mean Anonmoly288.9161
Mean Motion16.3863887
Decay Rate0.14404158
L11 44823U 19083C 19346.87440336 .14404158 12473-4 10420-2 0 9997
L22 44823 51.6433 192.8972 0022509 72.4350 288.9161 16.38638870 1154

Live tracking and technical data element details for DRAGON CRS-19 DEB (NORAD 44823). DRAGON CRS-19 DEB can be tracked NOW for your location showing map with azimuth and elevation plus other details from your city location.

Track the satellite on the map from your city or location and see movement details for azimuth, elevation, latitude, longitude, range, height, and movement on the map or in text.







IsCatalogInMostPopularTable: catalog: 44823, numindb: 42
Update: records affected: 1



GetName: 44823 DRAGON CRS-19 DEB

Hit Count: updated at: Sat, 28 Mar 2020 20:56:32 GMT